When you browse on this site, cookies collect data to enhance your experience and personalize the content and advertising you see.
Visit our Privacy Policy to learn more. By continuing to use the site, you agree to this use of cookies and data.
  • In Slovakia
  • List of Countries
  • For 7 days
  • Water Temperature
  • Satellite Maps
  • Weather Map
  • Weather Widgets
  • user-avatar
    Login

    Hourly Weather Luanda

    Today, 25 March, Monday

    Time Temperature Precipitation Wind Pressure Humidity
    00:00 +29°C° 0.8 mm 3 mps 753 mmHg 87%
    01:00 +29°C° 0 mm 1 mps 753 mmHg 88%
    02:00 +29°C° 0.8 mm 2 mps 752 mmHg 89%
    03:00 +29°C° 0.8 mm 2 mps 752 mmHg 89%
    04:00 +29°C° 0.8 mm 3 mps 752 mmHg 90%
    05:00 +29°C° 1.1 mm 2 mps 752 mmHg 89%
    06:00 +29°C° 1.1 mm 2 mps 752 mmHg 88%
    07:00 +29°C° 0 mm 2 mps 753 mmHg 87%
    08:00 +30°C° 0.2 mm 2 mps 753 mmHg 82%
    09:00 +31°C° 0.2 mm 1 mps 753 mmHg 76%
    10:00 +32°C° 0.2 mm 1 mps 753 mmHg 70%
    11:00 +34°C° 0 mm 3 mps 753 mmHg 67%
    12:00 +35°C° 0 mm 4 mps 753 mmHg 65%
    13:00 +35°C° 0 mm 5 mps 752 mmHg 62%
    14:00 +34°C° 0.1 mm 5 mps 752 mmHg 65%
    15:00 +34°C° 0.1 mm 5 mps 751 mmHg 68%
    16:00 +33°C° 0.1 mm 5 mps 751 mmHg 71%
    17:00 +32°C° 0.2 mm 4 mps 752 mmHg 76%
    18:00 +30°C° 0.2 mm 4 mps 752 mmHg 80%
    19:00 +29°C° 0.2 mm 3 mps 752 mmHg 85%
    20:00 +29°C° 0.5 mm 3 mps 753 mmHg 86%
    21:00 +29°C° 0.5 mm 3 mps 753 mmHg 87%
    22:00 +29°C° 0.5 mm 3 mps 753 mmHg 88%
    23:00 +29°C° 0.4 mm 3 mps 753 mmHg 89%

    Tomorrow, 26 March, Tuesday

    Time Temperature Precipitation Wind Pressure Humidity
    00:00 +29°C° 0.4 mm 3 mps 753 mmHg 89%
    01:00 +28°C° 0.4 mm 3 mps 753 mmHg 89%
    02:00 +28°C° 0.2 mm 3 mps 753 mmHg 90%
    03:00 +28°C° 0.2 mm 3 mps 753 mmHg 90%
    04:00 +28°C° 0.2 mm 4 mps 752 mmHg 90%
    05:00 +28°C° 0.5 mm 4 mps 752 mmHg 90%
    06:00 +28°C° 0.5 mm 3 mps 753 mmHg 89%
    07:00 +28°C° 0.5 mm 3 mps 753 mmHg 89%
    08:00 +29°C° 0 mm 3 mps 753 mmHg 83%
    09:00 +30°C° 0 mm 2 mps 754 mmHg 77%
    10:00 +31°C° 0 mm 2 mps 754 mmHg 71%
    11:00 +32°C° 0 mm 2 mps 754 mmHg 67%
    12:00 +34°C° 0 mm 3 mps 753 mmHg 63%
    13:00 +35°C° 0 mm 3 mps 753 mmHg 59%
    14:00 +35°C° 0 mm 4 mps 752 mmHg 61%
    15:00 +34°C° 0 mm 4 mps 752 mmHg 64%
    16:00 +34°C° 0 mm 5 mps 751 mmHg 66%
    17:00 +33°C° 0 mm 5 mps 752 mmHg 70%
    18:00 +32°C° 0 mm 4 mps 752 mmHg 74%
    19:00 +30°C° 0 mm 4 mps 752 mmHg 78%
    20:00 +30°C° 0 mm 3 mps 753 mmHg 80%
    21:00 +29°C° 0 mm 3 mps 753 mmHg 81%
    22:00 +29°C° 0 mm 3 mps 754 mmHg 82%
    23:00 +29°C° 0 mm 2 mps 753 mmHg 83%

    Day after tomorrow, 27 March, Wednesday

    Time Temperature Precipitation Wind Pressure Humidity
    00:00 +29°C° 0 mm 2 mps 753 mmHg 84%
    01:00 +28°C° 0 mm 2 mps 753 mmHg 85%
    02:00 +28°C° 0 mm 2 mps 753 mmHg 86%
    03:00 +28°C° 0 mm 2 mps 752 mmHg 87%
    04:00 +28°C° 0 mm 2 mps 752 mmHg 88%
    05:00 +28°C° 0 mm 3 mps 753 mmHg 88%
    06:00 +27°C° 0 mm 3 mps 753 mmHg 88%
    07:00 +27°C° 0 mm 3 mps 754 mmHg 88%
    08:00 +29°C° 0 mm 3 mps 754 mmHg 81%
    09:00 +30°C° 0 mm 2 mps 755 mmHg 74%
    10:00 +32°C° 0 mm 2 mps 755 mmHg 67%
    11:00 +34°C° 0 mm 2 mps 754 mmHg 64%
    12:00 +35°C° 0 mm 2 mps 754 mmHg 61%
    13:00 +35°C° 0 mm 3 mps 753 mmHg 57%
    14:00 +35°C° 0 mm 3 mps 752 mmHg 58%
    15:00 +35°C° 0 mm 4 mps 752 mmHg 59%
    16:00 +35°C° 0 mm 4 mps 752 mmHg 60%
    17:00 +34°C° 0 mm 4 mps 752 mmHg 66%
    18:00 +31°C° 0 mm 3 mps 753 mmHg 73%
    19:00 +30°C° 0 mm 3 mps 753 mmHg 80%
    20:00 +29°C° 0 mm 3 mps 754 mmHg 81%
    21:00 +29°C° 0 mm 3 mps 754 mmHg 83%
    22:00 +29°C° 0 mm 3 mps 755 mmHg 85%
    23:00 +29°C° 0 mm 3 mps 754 mmHg 86%

    28 March, Thursday

    Time Temperature Precipitation Wind Pressure Humidity
    00:00 +29°C° 0 mm 3 mps 754 mmHg 86%
    01:00 +29°C° 0 mm 3 mps 754 mmHg 87%
    02:00 +28°C° 0 mm 3 mps 753 mmHg 88%
    03:00 +28°C° 0 mm 4 mps 753 mmHg 88%
    04:00 +28°C° 0 mm 4 mps 753 mmHg 89%
    05:00 +28°C° 0 mm 4 mps 753 mmHg 88%
    06:00 +28°C° 0 mm 3 mps 753 mmHg 88%
    07:00 +28°C° 0 mm 3 mps 754 mmHg 88%
    08:00 +29°C° 0 mm 3 mps 754 mmHg 83%
    09:00 +30°C° 0 mm 2 mps 754 mmHg 79%
    10:00 +31°C° 0 mm 2 mps 755 mmHg 74%
    11:00 +32°C° 0 mm 2 mps 754 mmHg 69%
    12:00 +33°C° 0 mm 1 mps 753 mmHg 63%
    13:00 +34°C° 0 mm 1 mps 752 mmHg 58%
    14:00 +36°C° 0 mm 2 mps 752 mmHg 58%
    15:00 +36°C° 0 mm 3 mps 751 mmHg 58%
    16:00 +36°C° 0 mm 3 mps 750 mmHg 57%
    17:00 +34°C° 0 mm 4 mps 751 mmHg 66%
    18:00 +33°C° 0 mm 4 mps 751 mmHg 74%
    19:00 +30°C° 0 mm 5 mps 752 mmHg 82%
    20:00 +30°C° 0.1 mm 4 mps 752 mmHg 84%
    21:00 +30°C° 0.1 mm 4 mps 753 mmHg 85%
    22:00 +29°C° 0.1 mm 3 mps 753 mmHg 87%
    23:00 +29°C° 0.3 mm 3 mps 753 mmHg 87%

    29 March, Friday

    Time Temperature Precipitation Wind Pressure Humidity
    00:00 +29°C° 0.3 mm 2 mps 753 mmHg 88%
    01:00 +29°C° 0.3 mm 2 mps 752 mmHg 88%
    02:00 +29°C° 0 mm 2 mps 752 mmHg 88%
    03:00 +28°C° 0 mm 3 mps 752 mmHg 89%
    04:00 +28°C° 0 mm 3 mps 751 mmHg 89%
    05:00 +28°C° 0 mm 3 mps 752 mmHg 88%
    06:00 +28°C° 0 mm 3 mps 752 mmHg 87%
    07:00 +28°C° 0 mm 3 mps 753 mmHg 87%
    08:00 +30°C° 0 mm 3 mps 753 mmHg 79%
    09:00 +32°C° 0 mm 2 mps 753 mmHg 71%
    10:00 +34°C° 0 mm 2 mps 753 mmHg 64%
    11:00 +35°C° 0 mm 2 mps 752 mmHg 60%
    12:00 +36°C° 0 mm 3 mps 752 mmHg 57%
    13:00 +37°C° 0 mm 3 mps 751 mmHg 53%
    14:00 +36°C° 0.3 mm 4 mps 751 mmHg 59%
    15:00 +35°C° 0.3 mm 4 mps 750 mmHg 65%
    16:00 +34°C° 0.3 mm 5 mps 750 mmHg 70%
    17:00 +33°C° 0.1 mm 4 mps 751 mmHg 74%
    18:00 +32°C° 0.1 mm 4 mps 751 mmHg 78%
    19:00 +30°C° 0.1 mm 4 mps 752 mmHg 82%
    20:00 +30°C° 0.8 mm 3 mps 752 mmHg 83%
    21:00 +30°C° 0.8 mm 2 mps 753 mmHg 85%
    22:00 +30°C° 0.8 mm 1 mps 753 mmHg 86%
    23:00 +30°C° 0.7 mm 1 mps 753 mmHg 86%

    30 March, Saturday

    Time Temperature Precipitation Wind Pressure Humidity
    00:00 +29°C° 0.7 mm 2 mps 753 mmHg 87%
    01:00 +29°C° 0.7 mm 2 mps 752 mmHg 87%
    02:00 +29°C° 0.4 mm 2 mps 752 mmHg 87%
    03:00 +29°C° 0.4 mm 2 mps 752 mmHg 88%
    04:00 +28°C° 0.4 mm 2 mps 752 mmHg 89%
    05:00 +28°C° 0.4 mm 3 mps 752 mmHg 89%
    06:00 +28°C° 0.4 mm 3 mps 752 mmHg 89%
    07:00 +28°C° 0.4 mm 3 mps 753 mmHg 88%
    08:00 +28°C° 0.2 mm 4 mps 753 mmHg 85%
    09:00 +29°C° 0.2 mm 4 mps 753 mmHg 82%
    10:00 +30°C° 0.2 mm 4 mps 754 mmHg 79%
    11:00 +32°C° 0 mm 4 mps 753 mmHg 70%
    12:00 +33°C° 0 mm 3 mps 752 mmHg 62%
    13:00 +35°C° 0 mm 3 mps 751 mmHg 53%
    14:00 +35°C° 0 mm 3 mps 751 mmHg 53%
    15:00 +35°C° 0 mm 2 mps 751 mmHg 53%
    16:00 +35°C° 0 mm 2 mps 750 mmHg 53%
    17:00 +34°C° 0 mm 2 mps 751 mmHg 57%
    18:00 +33°C° 0 mm 3 mps 751 mmHg 61%
    19:00 +31°C° 0 mm 3 mps 752 mmHg 65%
    20:00 +31°C° 0 mm 3 mps 752 mmHg 67%
    21:00 +30°C° 0 mm 3 mps 752 mmHg 69%
    22:00 +30°C° 0 mm 4 mps 752 mmHg 71%
    23:00 +29°C° 0 mm 4 mps 752 mmHg 73%
    Show more